NUSANTARA LIMA (NUSANT*)

Last updated on Sun Sep 14 2025 00:02:09 GMT+0000 (Coordinated Universal Time)

1 65588U 25205A 25255.10218750 .00000041 00000+0 00000+0 0 9992 2 65588 26.4759 204.2219 5387164 174.0939 9.9928 5.04113332 14
UTC large
Height (km)
Speed (km/s)
/
Latitude / Longitude
Inclination (degrees)
Orbital Period (minutes)
Azimuth
Elevation
Range (km)
Doppler Factor

Next 0 passes for location: London (51.5072 / 0.1276)

Sorry there are no passes over London.